Flag for Hungary Weather past 2 weeks in Miskolc, Hungary

Now
77 °F

Scattered clouds.


Feels Like: 78 °F
Forecast: 59 / 70 °F
Wind: 2 mph from East

Location: Miskolc

Current Time: Jul 10, 2014 at 6:59:16 PM

Latest Report: Jul 10, 2014 at 6:00 PM


Visibility: 25 mi

Pressure: 29.65 "Hg

Humidity: 42%

Dew point: 52 °F

Location of MiskolcLocation

Historic Weather in Miskolc — Graph

°F

Miskolc temperature yesterday

Maximum temperature yesterday: 71 °F (at 6:00 PM)
Minimum temperature yesterday: 61 °F (at 11:00 PM)
Average temperature yesterday: 67 °F

Past Weeks' High & Low Weather Summary

 TemperatureHumidityPressure
High89 °F (Jul 7, 2:00 PM)92% (Jul 1, 2:00 AM)30.27 "Hg (Jul 1, 2:00 AM)
Low51 °F (Jun 28, 5:00 AM)27% (Jun 28, 4:00 PM)29.64 "Hg (Jul 9, 4:00 PM)
Average68 °F62%29.95 "Hg
* Reported Jun 25 5:00 PM — Jul 10 5:00 PM, Miskolc, Weather by CustomWeather, © 2014

Note: Actual official high and low records may vary slightly from our data, if they occured in-between our weather recording intervals... More about our weather records

Advertising

Miskolc weather history for previous 24 hours

 ConditionsComfort  
Time TempWeatherWind HumidityBarometerVisibility
5:00 PM
Jul 10
77 °FPartly sunny.1 mph40%29.66 "Hg25 mi
4:00 PM78 °FScattered clouds.2 mph41%29.67 "Hg25 mi
3:00 PM78 °FPassing clouds.1 mph44%29.69 "Hg25 mi
2:00 PM77 °FScattered clouds.3 mph50%29.70 "Hg25 mi
1:00 PM74 °FPartly sunny.2 mph47%29.71 "Hg25 mi
12:00 PM74 °FScattered clouds.2 mph53%29.71 "Hg25 mi
11:00 AM72 °FScattered clouds.2 mph62%29.71 "Hg25 mi
10:00 AM69 °FPassing clouds.2 mph66%29.72 "Hg25 mi
9:00 AM67 °FPassing clouds.2 mph68%29.72 "Hg25 mi
8:00 AM64 °FSunny.1 mph72%29.72 "Hg22 mi
7:00 AM61 °FSunny.No wind82%29.72 "Hg19 mi
6:00 AM55 °FSunny.No wind92%29.72 "Hg16 mi
5:00 AM55 °FSunny.No wind91%29.71 "Hg16 mi
4:00 AM56 °FClear.No wind91%29.71 "Hg16 mi
3:00 AM57 °FClear.No wind90%29.71 "Hg16 mi
2:00 AM58 °FClear.No wind90%29.71 "Hg16 mi
1:00 AM60 °FClear.No wind85%29.71 "Hg16 mi
12:00 AM59 °FClear.1 mph90%29.71 "Hg19 mi
11:00 PM
Jul 9
61 °FClear.1 mph89%29.71 "Hg16 mi
10:00 PM62 °FPassing clouds.No wind85%29.70 "Hg19 mi
9:00 PM65 °FPassing clouds.1 mph80%29.69 "Hg19 mi
8:00 PM70 °FScattered clouds.No wind68%29.67 "Hg25 mi
7:00 PM71 °FOvercast.No wind65%29.65 "Hg22 mi
6:00 PM71 °FOvercast.1 mph72%29.65 "Hg19 mi
Weather by CustomWeather, © 2014

See weather overviewHow to use our weather pages